Content
SEND FEEDBACK

Daily
Averages
Monthly
Summary
Mexico

PUEBLA - LOMAS DEL MÁRMOL, PUEBLA


Home > North America > Mexico > Puebla
Elevation: 6916 feet     Latitude: 18 58N     Longitude: 098 10W

WEATHER
 
SELECT A DAY
Number of Records: 125,594;   Date Range: 1/1/95 - 12/24/14
 
SHARE

PRINT THIS DATA

[ ← Previous Day ]
WEATHER ALMANAC - MAY 10, 2013
[ Next Day → ]
[ °C ]   °F
Weather ElementAverageHighLow
Temperature69.7 °F82 °F (3:40 pm)51.8 °F (6:40 am)
Dewpoint38.8 °F48 °F (9:50 am)32 °F (6:40 pm)
Humidity32 %58 % (5:45 am)17 % (6:40 pm)
Barometer30.17 in30.40 in (10:42 am)29.60 in (6:40 pm)
Wind Speed6.9 mph20.7 mph (5:40 pm)
Weather ElementAverage
Visibility3.4 mi
Wind DirectionSSW (205.2 °)

Weather ElementTotal
Precipitation---
Cooling Degree Days1.9 (Base 65)
Growing Degree Days16.9 (Base 50)
Averaged from 25 records on May 10, 2013
WEATHER CONDITIONS BREAKOUT
WIND DIRECTION BREAKOUT
WEATHER BY HOUR - MAY 10, 2013
[ °C ]   °F
Local TimeTemperatureDewpointHumidityBarometerVisibilityWind DirectionWind SpeedGust SpeedPrecipitationEventsConditions
3:45 AM63.0 °F43.0 °F37 %29.77 in3.0 miCalmHaze
5:45 AM53.6 °F39.2 °F58 %30.35 in4.0 miWest (280°)4.6 mphPartly Cloudy
6:40 AM51.8 °F37.4 °F58 %30.36 in3.0 miWNW (300°)3.5 mphHaze
6:45 AM59.0 °F45.0 °F49 %29.81 in3.0 miCalmHaze
7:40 AM51.8 °F37.4 °F58 %30.37 in3.0 miWNW (290°)2.3 mphHaze
8:40 AM59.0 °F39.2 °F48 %30.38 in3.0 miNW (320°)5.8 mphHaze
9:40 AM64.4 °F41.0 °F42 %30.39 in3.0 miNorth (360°)2.3 mphHaze
9:50 AM68.0 °F48.0 °F38 %29.88 in3.0 miCalmSmoke
10:42 AM69.8 °F41.0 °F35 %30.40 in3.0 miSE (140°)5.8 mphHaze
11:40 AM71.6 °F37.4 °F29 %30.39 in3.0 miSSE (150°)10.4 mphHaze
12:43 PM75.2 °F39.2 °F27 %30.37 in3.0 miSSE (150°)8.1 mphHaze
12:50 PM79.0 °F48.0 °F23 %29.86 in3.0 miSSE (150°)2.2 mphHaze
1:43 PM78.8 °F39.2 °F24 %30.33 in3.0 miSouth (170°)15.0 mphHaze
2:40 PM78.8 °F35.6 °F21 %30.30 in3.0 miSSE (160°)6.9 mphHaze
3:40 PM82.0 °F46.0 °F18 %29.70 in3.0 miSouth (180°)2.2 mphHaze
3:40 PM80.6 °F33.8 °F18 %30.27 in4.0 miSouth (190°)15.0 mphScattered Clouds
4:40 PM78.8 °F33.8 °F20 %30.25 in4.0 miSouth (190°)16.1 mphScattered Clouds
5:40 PM78.8 °F33.8 °F20 %30.24 in4.0 miSouth (180°)20.7 mphMostly Cloudy
6:40 PM75.2 °F32.0 °F21 %30.25 in4.0 miSouth (190°)12.7 mphMostly Cloudy
6:40 PM79.0 °F42.0 °F17 %29.60 in3.0 miSouth (180°)2.2 mphHaze
7:40 PM73.4 °F33.8 °F23 %30.26 in4.0 miSouth (190°)15.0 mphMostly Cloudy
8:41 PM68.0 °F35.6 °F30 %30.30 in4.0 miSouth (180°)9.2 mphMostly Cloudy
9:41 PM64.4 °F33.8 °F32 %30.33 in4.0 miSouth (180°)5.8 mphScattered Clouds
9:45 PM73.0 °F41.0 °F21 %29.63 in3.0 miCalmHaze
10:43 PM64.4 °F33.8 °F32 %30.34 in4.0 miSouth (180°)6.9 mphScattered Clouds
Hourly data recorded from MMPB, located miles away from Puebla - Lomas del Mármol, Puebla







STORIES FROM OUR PARTNERS